Location: Alto Pass Reservoir
(37.5801°N, 89.3084°W)
Time: 19:04:17
(UTC+00:00)

Cosmos 1666 - Pass Details

Date: 05 July 2022
Orbit: 489 x 511 km, 82.5° (Epoch: 08 August)

Event Time Altitude Azimuth Distance (km) Brightness Sun altitude
Exits shadow 09:48:28 12° 248° (WSW) 1,571 4.5 -9.5°
Maximum altitude 09:50:31 18° 285° (WNW) 1,302 4.4 -9.2°
Drops below altitude 10° 09:53:06 10° 329° (NNW) 1,706 5.4 -8.8°
Sets 09:55:46 0° 349° (N) 2,590 6.6 -8.4°
